When you browse on this site, cookies collect data to enhance your experience and personalize the content and advertising you see.
Visit our Privacy Policy to learn more. By continuing to use the site, you agree to this use of cookies and data.
  • In Latvia
  • List of Countries
  • For 7 days
  • Water Temperature
  • Weather Map
  • Weather Widgets
  • user-avatar
    Login

    Hourly Weather Newark

    Today, 22 November, Friday

    Time Temperature Precipitation Wind Pressure Humidity
    00:00 +7°C° 0 mm 4 mps 760 mmHg 57%
    01:00 +7°C° 0 mm 5 mps 759 mmHg 56%
    02:00 +7°C° 0 mm 4 mps 759 mmHg 58%
    03:00 +8°C° 0 mm 4 mps 758 mmHg 60%
    04:00 +8°C° 0 mm 4 mps 757 mmHg 62%
    05:00 +7°C° 0 mm 4 mps 757 mmHg 65%
    06:00 +7°C° 0 mm 4 mps 757 mmHg 68%
    07:00 +7°C° 0 mm 5 mps 756 mmHg 71%
    08:00 +8°C° 0 mm 5 mps 755 mmHg 70%
    09:00 +9°C° 0 mm 5 mps 755 mmHg 69%
    10:00 +10°C° 0 mm 5 mps 754 mmHg 68%
    11:00 +10°C° 0.7 mm 6 mps 754 mmHg 74%
    12:00 +10°C° 0.7 mm 6 mps 753 mmHg 79%
    13:00 +10°C° 0.7 mm 7 mps 753 mmHg 85%
    14:00 +9°C° 0.9 mm 7 mps 753 mmHg 77%
    15:00 +8°C° 0.9 mm 6 mps 754 mmHg 68%
    16:00 +7°C° 0.9 mm 6 mps 754 mmHg 60%
    17:00 +5°C° 0 mm 7 mps 755 mmHg 58%
    18:00 +4°C° 0 mm 7 mps 756 mmHg 56%
    19:00 +3°C° 0 mm 7 mps 757 mmHg 55%
    20:00 +2°C° 0 mm 7 mps 758 mmHg 55%
    21:00 0°C° 0 mm 7 mps 758 mmHg 55%
    22:00 +1°C° 0 mm 6 mps 759 mmHg 55%
    23:00 -1°C° 0 mm 6 mps 759 mmHg 54%

    Tomorrow, 23 November, Saturday

    Time Temperature Precipitation Wind Pressure Humidity
    00:00 0°C° 0 mm 5 mps 759 mmHg 53%
    01:00 0°C° 0 mm 5 mps 760 mmHg 53%
    02:00 -1°C° 0 mm 5 mps 760 mmHg 52%
    03:00 -1°C° 0 mm 4 mps 760 mmHg 52%
    04:00 -1°C° 0 mm 4 mps 760 mmHg 52%
    05:00 0°C° 0 mm 3 mps 760 mmHg 52%
    06:00 0°C° 0 mm 3 mps 761 mmHg 52%
    07:00 0°C° 0 mm 3 mps 761 mmHg 52%
    08:00 +1°C° 0 mm 3 mps 761 mmHg 50%
    09:00 +2°C° 0 mm 3 mps 761 mmHg 47%
    10:00 +3°C° 0 mm 3 mps 761 mmHg 45%
    11:00 +4°C° 0 mm 3 mps 760 mmHg 43%
    12:00 +5°C° 0 mm 3 mps 760 mmHg 41%
    13:00 +7°C° 0 mm 3 mps 759 mmHg 39%
    14:00 +7°C° 0 mm 3 mps 758 mmHg 41%
    15:00 +7°C° 0 mm 3 mps 758 mmHg 43%
    16:00 +7°C° 0 mm 3 mps 757 mmHg 45%
    17:00 +7°C° 0 mm 3 mps 757 mmHg 47%
    18:00 +5°C° 0 mm 3 mps 757 mmHg 49%
    19:00 +5°C° 0 mm 3 mps 757 mmHg 51%
    20:00 +5°C° 0.1 mm 3 mps 756 mmHg 53%
    21:00 +4°C° 0.1 mm 3 mps 755 mmHg 55%
    22:00 +4°C° 0.1 mm 3 mps 755 mmHg 57%
    23:00 +5°C° 1.4 mm 2 mps 754 mmHg 67%

    Day after tomorrow, 24 November, Sunday

    Time Temperature Precipitation Wind Pressure Humidity
    00:00 +5°C° 1.4 mm 2 mps 753 mmHg 77%
    01:00 +5°C° 1.4 mm 1 mps 753 mmHg 87%
    02:00 +5°C° 1.3 mm 1 mps 752 mmHg 89%
    03:00 +5°C° 1.3 mm 2 mps 751 mmHg 90%
    04:00 +5°C° 1.3 mm 2 mps 750 mmHg 92%
    05:00 +5°C° 0.9 mm 2 mps 749 mmHg 93%
    06:00 +4°C° 0.9 mm 3 mps 749 mmHg 94%
    07:00 +5°C° 0.9 mm 3 mps 748 mmHg 94%
    08:00 +5°C° 0.5 mm 3 mps 748 mmHg 93%
    09:00 +5°C° 0.5 mm 3 mps 747 mmHg 92%
    10:00 +5°C° 0.5 mm 3 mps 747 mmHg 91%
    11:00 +5°C° 1.8 mm 4 mps 747 mmHg 89%
    12:00 +5°C° 1.8 mm 5 mps 747 mmHg 87%
    13:00 +5°C° 1.8 mm 5 mps 747 mmHg 85%
    14:00 +5°C° 0.1 mm 5 mps 747 mmHg 82%
    15:00 +5°C° 0.1 mm 5 mps 748 mmHg 78%
    16:00 +5°C° 0.1 mm 5 mps 748 mmHg 75%
    17:00 +5°C° 0 mm 5 mps 749 mmHg 70%
    18:00 +5°C° 0 mm 5 mps 750 mmHg 66%
    19:00 +3°C° 0 mm 6 mps 751 mmHg 62%
    20:00 +3°C° 0 mm 5 mps 751 mmHg 63%
    21:00 +3°C° 0 mm 5 mps 752 mmHg 64%
    22:00 +2°C° 0 mm 5 mps 752 mmHg 66%
    23:00 +3°C° 0 mm 4 mps 752 mmHg 68%

    25 November, Monday

    Time Temperature Precipitation Wind Pressure Humidity
    00:00 +3°C° 0 mm 4 mps 753 mmHg 70%
    01:00 +2°C° 0 mm 3 mps 753 mmHg 72%
    02:00 +2°C° 0 mm 3 mps 754 mmHg 74%
    03:00 +2°C° 0 mm 3 mps 754 mmHg 75%
    04:00 +2°C° 0 mm 3 mps 755 mmHg 77%
    05:00 +2°C° 0 mm 3 mps 755 mmHg 78%
    06:00 +2°C° 0 mm 3 mps 756 mmHg 78%
    07:00 +2°C° 0 mm 2 mps 756 mmHg 79%
    08:00 +3°C° 0 mm 2 mps 756 mmHg 75%
    09:00 +4°C° 0 mm 2 mps 757 mmHg 72%
    10:00 +5°C° 0 mm 2 mps 757 mmHg 68%
    11:00 +6°C° 0 mm 2 mps 757 mmHg 64%
    12:00 +7°C° 0 mm 2 mps 757 mmHg 61%
    13:00 +8°C° 0 mm 2 mps 756 mmHg 57%
    14:00 +8°C° 0 mm 2 mps 756 mmHg 59%
    15:00 +8°C° 0 mm 2 mps 757 mmHg 61%
    16:00 +8°C° 0 mm 2 mps 757 mmHg 64%
    17:00 +7°C° 0 mm 2 mps 757 mmHg 67%
    18:00 +6°C° 0 mm 2 mps 758 mmHg 71%
    19:00 +6°C° 0 mm 2 mps 758 mmHg 75%
    20:00 +6°C° 0 mm 2 mps 759 mmHg 76%
    21:00 +5°C° 0 mm 2 mps 759 mmHg 78%
    22:00 +5°C° 0 mm 2 mps 759 mmHg 79%
    23:00 +5°C° 0 mm 2 mps 759 mmHg 80%

    26 November, Tuesday

    Time Temperature Precipitation Wind Pressure Humidity
    00:00 +5°C° 0 mm 2 mps 759 mmHg 80%
    01:00 +5°C° 0 mm 2 mps 759 mmHg 81%
    02:00 +4°C° 0 mm 2 mps 759 mmHg 82%
    03:00 +4°C° 0 mm 2 mps 760 mmHg 83%
    04:00 +5°C° 0 mm 1 mps 760 mmHg 85%
    05:00 +5°C° 0 mm 1 mps 760 mmHg 85%
    06:00 +5°C° 0 mm 1 mps 761 mmHg 86%
    07:00 +5°C° 0 mm 1 mps 761 mmHg 87%
    08:00 +6°C° 0 mm 1 mps 761 mmHg 82%
    09:00 +6°C° 0 mm 2 mps 762 mmHg 77%
    10:00 +8°C° 0 mm 2 mps 762 mmHg 72%
    11:00 +8°C° 0 mm 2 mps 762 mmHg 70%
    12:00 +9°C° 0 mm 2 mps 762 mmHg 67%
    13:00 +10°C° 0 mm 2 mps 761 mmHg 65%
    14:00 +10°C° 0 mm 2 mps 761 mmHg 67%
    15:00 +11°C° 0 mm 1 mps 761 mmHg 69%
    16:00 +11°C° 0 mm 1 mps 761 mmHg 71%
    17:00 +11°C° 0 mm 1 mps 761 mmHg 76%
    18:00 +10°C° 0 mm 1 mps 761 mmHg 80%
    19:00 +10°C° 0 mm 1 mps 762 mmHg 84%
    20:00 +8°C° 0 mm 2 mps 762 mmHg 86%
    21:00 +8°C° 0 mm 2 mps 761 mmHg 88%
    22:00 +8°C° 0 mm 2 mps 761 mmHg 90%
    23:00 +8°C° 0 mm 3 mps 761 mmHg 90%

    27 November, Wednesday

    Time Temperature Precipitation Wind Pressure Humidity
    00:00 +8°C° 0 mm 3 mps 760 mmHg 90%
    01:00 +8°C° 0 mm 3 mps 760 mmHg 90%
    02:00 +8°C° 0 mm 3 mps 759 mmHg 91%
    03:00 +8°C° 0 mm 3 mps 759 mmHg 92%
    04:00 +8°C° 0 mm 3 mps 758 mmHg 92%
    05:00 +7°C° 0 mm 4 mps 758 mmHg 90%
    06:00 +8°C° 0 mm 4 mps 757 mmHg 89%
    07:00 +8°C° 0 mm 5 mps 757 mmHg 87%
    08:00 +9°C° 0.2 mm 5 mps 757 mmHg 82%
    09:00 +10°C° 0.2 mm 5 mps 757 mmHg 78%
    10:00 +11°C° 0.2 mm 6 mps 757 mmHg 73%
    11:00 +11°C° 0 mm 7 mps 757 mmHg 65%
    12:00 +11°C° 0 mm 8 mps 757 mmHg 57%
    13:00 +11°C° 0 mm 9 mps 758 mmHg 49%
    14:00 +10°C° 0 mm 9 mps 759 mmHg 48%
    15:00 +9°C° 0 mm 8 mps 760 mmHg 47%
    16:00 +7°C° 0 mm 8 mps 761 mmHg 46%
    17:00 +6°C° 0 mm 8 mps 762 mmHg 47%
    18:00 +5°C° 0 mm 7 mps 762 mmHg 49%
    19:00 +4°C° 0 mm 7 mps 763 mmHg 50%
    20:00 +4°C° 0 mm 8 mps 764 mmHg 51%
    21:00 +2°C° 0 mm 8 mps 765 mmHg 52%
    22:00 +2°C° 0 mm 8 mps 765 mmHg 54%
    23:00 +1°C° 0 mm 8 mps 766 mmHg 54%
    Show more